Time,TemperatureF,DewpointF,PressureIn,WindDirection,WindDirectionDegrees,WindSpeedMPH,WindSpeedGustMPH,Humidity,HourlyPrecipIn,Conditions,Clouds,dailyrainin,SoftwareType,DateUTC
2013-04-19 00:03:00,69.0,63.0,29.93,SSW,198,3.0,-999.0,81,-99.99,,,-99.99,,2013-04-19 04:03:00,
2013-04-19 00:13:00,69.0,63.0,29.93,SSW,198,3.0,-999.0,81,-99.99,,,-99.99,,2013-04-19 04:13:00,
2013-04-19 00:23:00,69.0,63.0,29.93,South,173,2.0,-999.0,81,-99.99,,,-99.99,,2013-04-19 04:23:00,
2013-04-19 00:33:00,68.0,62.0,29.92,SSE,164,3.0,-999.0,81,-99.99,,,-99.99,,2013-04-19 04:33:00,
2013-04-19 00:43:00,68.0,62.0,29.92,SE,130,4.0,-999.0,81,-99.99,,,-99.99,,2013-04-19 04:43:00,
2013-04-19 00:52:00,68.0,62.0,29.92,SE,130,4.0,-999.0,81,-99.99,,,-99.99,,2013-04-19 04:52:00,
2013-04-19 01:03:00,68.0,62.0,29.92,SSE,149,2.0,-999.0,81,-99.99,,,-99.99,,2013-04-19 05:03:00,
2013-04-19 01:12:00,68.0,62.0,29.92,SSE,149,2.0,-999.0,81,-99.99,,,-99.99,,2013-04-19 05:12:00,
2013-04-19 01:22:00,68.0,62.0,29.92,ESE,123,3.0,-999.0,81,-99.99,,,-99.99,,2013-04-19 05:22:00,
2013-04-19 01:32:00,68.0,62.0,29.91,SE,140,3.0,-999.0,81,-99.99,,,-99.99,,2013-04-19 05:32:00,
2013-04-19 01:42:00,68.0,62.0,29.91,SE,140,3.0,-999.0,81,-99.99,,,-99.99,,2013-04-19 05:42:00,
2013-04-19 01:52:00,67.0,61.0,29.90,SE,137,3.0,-999.0,82,-99.99,,,-99.99,,2013-04-19 05:52:00,
2013-04-19 02:02:00,67.0,61.0,29.90,SSE,161,4.0,-999.0,82,-99.99,,,-99.99,,2013-04-19 06:02:00,
2013-04-19 02:12:00,67.0,61.0,29.90,SSE,161,4.0,-999.0,82,-99.99,,,-99.99,,2013-04-19 06:12:00,
2013-04-19 02:22:00,67.0,61.0,29.89,SSE,164,5.0,-999.0,82,-99.99,,,-99.99,,2013-04-19 06:22:00,
2013-04-19 02:32:00,67.0,62.0,29.89,SSE,159,5.0,-999.0,83,-99.99,,,-99.99,,2013-04-19 06:32:00,
2013-04-19 02:42:00,67.0,62.0,29.89,SSE,159,5.0,-999.0,83,-99.99,,,-99.99,,2013-04-19 06:42:00,
2013-04-19 02:52:00,67.0,62.0,29.88,SSE,155,5.0,-999.0,83,-99.99,,,-99.99,,2013-04-19 06:52:00,
2013-04-19 03:02:00,67.0,62.0,29.88,SSE,162,4.0,-999.0,84,-99.99,,,-99.99,,2013-04-19 07:02:00,
2013-04-19 03:12:00,67.0,62.0,29.88,SSE,162,4.0,-999.0,84,-99.99,,,-99.99,,2013-04-19 07:12:00,
2013-04-19 03:21:00,66.0,61.0,29.87,SSE,155,3.0,-999.0,85,-99.99,,,-99.99,,2013-04-19 07:21:00,
2013-04-19 03:32:00,66.0,61.0,29.87,SSE,157,2.0,-999.0,85,-99.99,,,-99.99,,2013-04-19 07:32:00,
2013-04-19 03:42:00,66.0,61.0,29.87,SSE,157,2.0,-999.0,85,-99.99,,,-99.99,,2013-04-19 07:42:00,
2013-04-19 03:52:00,66.0,62.0,29.86,SE,146,3.0,-999.0,86,-99.99,,,-99.99,,2013-04-19 07:52:00,
2013-04-19 04:02:00,66.0,62.0,29.86,SE,141,3.0,-999.0,86,-99.99,,,-99.99,,2013-04-19 08:02:00,
2013-04-19 04:12:00,66.0,62.0,29.86,SE,141,3.0,-999.0,86,-99.99,,,-99.99,,2013-04-19 08:12:00,
2013-04-19 04:22:00,66.0,62.0,29.85,SSE,154,4.0,-999.0,87,-99.99,,,-99.99,,2013-04-19 08:22:00,
2013-04-19 04:33:00,66.0,62.0,29.84,South,169,2.0,-999.0,87,-99.99,,,-99.99,,2013-04-19 08:33:00,
2013-04-19 04:42:00,66.0,62.0,29.84,South,169,2.0,-999.0,87,-99.99,,,-99.99,,2013-04-19 08:42:00,
2013-04-19 04:52:00,66.0,62.0,29.83,SE,141,3.0,-999.0,87,-99.99,,,-99.99,,2013-04-19 08:52:00,
2013-04-19 05:01:00,66.0,62.0,29.82,SSE,164,5.0,-999.0,87,-99.99,,,-99.99,,2013-04-19 09:01:00,
2013-04-19 05:12:00,66.0,62.0,29.82,SSE,164,5.0,-999.0,87,-99.99,,,-99.99,,2013-04-19 09:12:00,
2013-04-19 05:21:00,66.0,62.0,29.82,SSE,163,5.0,-999.0,87,-99.99,,,-99.99,,2013-04-19 09:21:00,
2013-04-19 05:33:00,66.0,62.0,29.82,SSE,168,5.0,-999.0,87,-99.99,,,-99.99,,2013-04-19 09:33:00,
2013-04-19 05:43:00,66.0,62.0,29.82,SSE,168,5.0,-999.0,87,-99.99,,,-99.99,,2013-04-19 09:43:00,
2013-04-19 05:52:00,66.0,62.0,29.82,SSE,165,4.0,-999.0,87,-99.99,,,-99.99,,2013-04-19 09:52:00,
2013-04-19 06:02:00,66.0,62.0,29.82,SSE,165,5.0,-999.0,87,-99.99,,,-99.99,,2013-04-19 10:02:00,
2013-04-19 06:13:00,66.0,62.0,29.82,SW,221,5.0,-999.0,88,-99.99,,,-99.99,,2013-04-19 10:13:00,
2013-04-19 06:23:00,66.0,62.0,29.82,SW,221,5.0,-999.0,88,-99.99,,,-99.99,,2013-04-19 10:23:00,
2013-04-19 06:33:00,66.0,62.0,29.82,SSE,162,5.0,-999.0,88,-99.99,,,-99.99,,2013-04-19 10:33:00,
2013-04-19 06:42:00,66.0,62.0,29.82,SSE,162,5.0,-999.0,88,-99.99,,,-99.99,,2013-04-19 10:42:00,
2013-04-19 06:52:00,66.0,62.0,29.82,SSE,163,4.0,-999.0,88,-99.99,,,-99.99,,2013-04-19 10:52:00,
2013-04-19 07:03:00,66.0,62.0,29.83,SSW,213,3.0,-999.0,88,-99.99,,,-99.99,,2013-04-19 11:03:00,
2013-04-19 07:11:00,66.0,62.0,29.83,SSW,213,3.0,-999.0,88,-99.99,,,-99.99,,2013-04-19 11:11:00,
2013-04-19 07:22:00,66.0,62.0,29.83,South,176,3.0,-999.0,88,-99.99,,,-99.99,,2013-04-19 11:22:00,
2013-04-19 07:32:00,66.0,62.0,29.83,SE,143,3.0,-999.0,88,-99.99,,,-99.99,,2013-04-19 11:32:00,
2013-04-19 07:42:00,66.0,62.0,29.83,SE,143,3.0,-999.0,88,-99.99,,,-99.99,,2013-04-19 11:42:00,
2013-04-19 07:52:00,66.0,62.0,29.83,SE,142,3.0,-999.0,88,-99.99,,,-99.99,,2013-04-19 11:52:00,
2013-04-19 08:03:00,66.0,62.0,29.84,SSE,166,5.0,-999.0,88,-99.99,,,-99.99,,2013-04-19 12:03:00,
2013-04-19 08:12:00,66.0,62.0,29.84,SSE,166,5.0,-999.0,88,-99.99,,,-99.99,,2013-04-19 12:12:00,
2013-04-19 08:22:00,66.0,62.0,29.84,SSE,165,5.0,-999.0,88,-99.99,,,-99.99,,2013-04-19 12:22:00,
2013-04-19 08:32:00,67.0,63.0,29.82,SE,131,6.0,-999.0,87,-99.99,,,-99.99,,2013-04-19 12:32:00,
2013-04-19 08:42:00,67.0,63.0,29.82,SE,131,6.0,-999.0,87,-99.99,,,-99.99,,2013-04-19 12:42:00,
2013-04-19 08:52:00,67.0,63.0,29.83,ESE,120,7.0,-999.0,87,-99.99,,,-99.99,,2013-04-19 12:52:00,
2013-04-19 09:02:00,67.0,63.0,29.82,SSE,157,6.0,-999.0,87,-99.99,,,-99.99,,2013-04-19 13:02:00,
2013-04-19 09:11:00,67.0,63.0,29.82,SSE,157,6.0,-999.0,87,-99.99,,,-99.99,,2013-04-19 13:11:00,
2013-04-19 09:22:00,67.0,64.0,29.83,SSE,163,3.0,-999.0,89,-99.99,,,-99.99,,2013-04-19 13:22:00,
2013-04-19 09:32:00,66.0,63.0,29.82,SW,215,7.0,-999.0,90,-99.99,,,-99.99,,2013-04-19 13:32:00,
2013-04-19 09:42:00,66.0,63.0,29.82,SW,215,7.0,-999.0,90,-99.99,,,-99.99,,2013-04-19 13:42:00,
2013-04-19 09:52:00,66.0,63.0,29.82,East,86,6.0,-999.0,90,-99.99,,,-99.99,,2013-04-19 13:52:00,
2013-04-19 10:02:00,67.0,64.0,29.80,SE,134,7.0,-999.0,89,-99.99,,,-99.99,,2013-04-19 14:02:00,
2013-04-19 10:11:00,67.0,64.0,29.80,SE,134,7.0,-999.0,89,-99.99,,,-99.99,,2013-04-19 14:11:00,
2013-04-19 10:22:00,67.0,63.0,29.82,SSE,165,5.0,-999.0,88,-99.99,,,-99.99,,2013-04-19 14:22:00,
2013-04-19 10:32:00,66.0,63.0,29.81,South,170,5.0,-999.0,90,-99.99,,,-99.99,,2013-04-19 14:32:00,
2013-04-19 10:43:00,66.0,63.0,29.81,South,170,5.0,-999.0,90,-99.99,,,-99.99,,2013-04-19 14:43:00,
2013-04-19 10:52:00,67.0,63.0,29.79,SSE,163,5.0,-999.0,88,-99.99,,,-99.99,,2013-04-19 14:52:00,
2013-04-19 11:02:00,68.0,64.0,29.78,South,171,3.0,-999.0,87,-99.99,,,-99.99,,2013-04-19 15:02:00,
2013-04-19 11:12:00,68.0,64.0,29.78,South,171,3.0,-999.0,87,-99.99,,,-99.99,,2013-04-19 15:12:00,
2013-04-19 11:22:00,69.0,64.0,29.78,SW,220,4.0,-999.0,85,-99.99,,,-99.99,,2013-04-19 15:22:00,
2013-04-19 11:33:00,69.0,64.0,29.77,South,175,6.0,-999.0,83,-99.99,,,-99.99,,2013-04-19 15:33:00,
2013-04-19 11:43:00,69.0,64.0,29.77,South,175,6.0,-999.0,83,-99.99,,,-99.99,,2013-04-19 15:43:00,
2013-04-19 11:52:00,70.0,64.0,29.78,South,171,6.0,-999.0,81,-99.99,,,-99.99,,2013-04-19 15:52:00,
2013-04-19 12:03:00,71.0,64.0,29.76,SSE,165,9.0,-999.0,79,-99.99,,,-99.99,,2013-04-19 16:03:00,
2013-04-19 12:13:00,71.0,64.0,29.76,SSE,165,9.0,-999.0,79,-99.99,,,-99.99,,2013-04-19 16:13:00,
2013-04-19 12:23:00,71.0,64.0,29.76,SSE,168,9.0,-999.0,79,-99.99,,,-99.99,,2013-04-19 16:23:00,
2013-04-19 12:33:00,70.0,64.0,29.75,SSW,201,7.0,-999.0,80,-99.99,,,-99.99,,2013-04-19 16:33:00,
2013-04-19 12:42:00,70.0,64.0,29.75,SSW,201,7.0,-999.0,80,-99.99,,,-99.99,,2013-04-19 16:42:00,
2013-04-19 12:52:00,70.0,64.0,29.75,SSE,165,8.0,-999.0,81,-99.99,,,-99.99,,2013-04-19 16:52:00,
2013-04-19 13:02:00,69.0,64.0,29.74,SE,131,7.0,-999.0,84,-99.99,,,-99.99,,2013-04-19 17:02:00,
2013-04-19 13:12:00,69.0,64.0,29.74,SE,131,7.0,-999.0,84,-99.99,,,-99.99,,2013-04-19 17:12:00,
2013-04-19 13:22:00,70.0,65.0,29.74,South,184,6.0,-999.0,84,-99.99,,,-99.99,,2013-04-19 17:22:00,
2013-04-19 13:33:00,71.0,65.0,29.74,South,178,8.0,-999.0,81,-99.99,,,-99.99,,2013-04-19 17:33:00,
2013-04-19 13:43:00,71.0,65.0,29.74,South,178,8.0,-999.0,81,-99.99,,,-99.99,,2013-04-19 17:43:00,
2013-04-19 13:52:00,71.0,65.0,29.74,SSE,167,4.0,-999.0,82,-99.99,,,-99.99,,2013-04-19 17:52:00,
2013-04-19 14:02:00,71.0,65.0,29.75,SSW,192,4.0,-999.0,81,-99.99,,,-99.99,,2013-04-19 18:02:00,
2013-04-19 14:13:00,71.0,65.0,29.75,SSW,192,4.0,-999.0,81,-99.99,,,-99.99,,2013-04-19 18:13:00,
2013-04-19 14:23:00,71.0,65.0,29.75,SSE,165,9.0,-999.0,81,-99.99,,,-99.99,,2013-04-19 18:23:00,
2013-04-19 14:33:00,69.0,64.0,29.78,South,188,7.0,-999.0,85,-99.99,,,-99.99,,2013-04-19 18:33:00,
2013-04-19 14:43:00,69.0,64.0,29.78,South,188,7.0,-999.0,85,-99.99,,,-99.99,,2013-04-19 18:43:00,
2013-04-19 14:52:00,66.0,63.0,29.77,South,186,2.0,-999.0,90,-99.99,,,-99.99,,2013-04-19 18:52:00,
2013-04-19 15:02:00,65.0,63.0,29.77,WSW,240,3.0,-999.0,92,-99.99,,,-99.99,,2013-04-19 19:02:00,
2013-04-19 15:11:00,65.0,63.0,29.77,WSW,240,3.0,-999.0,92,-99.99,,,-99.99,,2013-04-19 19:11:00,
2013-04-19 15:21:00,65.0,63.0,29.77,SSE,168,2.0,-999.0,93,-99.99,,,-99.99,,2013-04-19 19:21:00,
2013-04-19 15:32:00,65.0,63.0,29.79,NW,313,3.0,-999.0,93,-99.99,,,-99.99,,2013-04-19 19:32:00,
2013-04-19 15:42:00,65.0,63.0,29.79,NW,313,3.0,-999.0,93,-99.99,,,-99.99,,2013-04-19 19:42:00,
2013-04-19 15:52:00,63.0,61.0,29.78,SW,219,4.0,-999.0,92,-99.99,,,-99.99,,2013-04-19 19:52:00,
2013-04-19 16:02:00,63.0,61.0,29.79,South,175,6.0,-999.0,92,-99.99,,,-99.99,,2013-04-19 20:02:00,
2013-04-19 16:11:00,63.0,61.0,29.79,South,175,6.0,-999.0,92,-99.99,,,-99.99,,2013-04-19 20:11:00,
2013-04-19 16:22:00,60.0,57.0,29.78,South,184,6.0,-999.0,89,-99.99,,,-99.99,,2013-04-19 20:22:00,
2013-04-19 16:32:00,60.0,57.0,29.78,SSE,161,3.0,-999.0,91,-99.99,,,-99.99,,2013-04-19 20:32:00,
2013-04-19 16:42:00,59.0,57.0,29.79,North,360,4.0,-999.0,92,-99.99,,,-99.99,,2013-04-19 20:42:00,
2013-04-19 16:52:00,59.0,57.0,29.79,North,360,4.0,-999.0,92,-99.99,,,-99.99,,2013-04-19 20:52:00,
2013-04-19 17:01:00,59.0,57.0,29.77,SSW,203,2.0,-999.0,92,-99.99,,,-99.99,,2013-04-19 21:01:00,
2013-04-19 17:11:00,58.0,55.0,29.75,SSE,148,3.0,-999.0,91,-99.99,,,-99.99,,2013-04-19 21:11:00,
2013-04-19 17:21:00,58.0,55.0,29.75,SSE,148,3.0,-999.0,91,-99.99,,,-99.99,,2013-04-19 21:21:00,
2013-04-19 17:32:00,58.0,55.0,29.76,SW,220,2.0,-999.0,90,-99.99,,,-99.99,,2013-04-19 21:32:00,
2013-04-19 17:43:00,58.0,55.0,29.76,SW,220,2.0,-999.0,90,-99.99,,,-99.99,,2013-04-19 21:43:00,
2013-04-19 17:52:00,58.0,54.0,29.75,SW,222,2.0,-999.0,88,-99.99,,,-99.99,,2013-04-19 21:52:00,
2013-04-19 18:02:00,57.0,53.0,29.77,South,169,3.0,-999.0,88,-99.99,,,-99.99,,2013-04-19 22:02:00,
2013-04-19 18:12:00,57.0,53.0,29.77,South,169,3.0,-999.0,88,-99.99,,,-99.99,,2013-04-19 22:12:00,
2013-04-19 18:23:00,56.0,53.0,29.80,NNW,327,3.0,-999.0,90,-99.99,,,-99.99,,2013-04-19 22:23:00,
2013-04-19 18:33:00,55.0,52.0,29.77,SSW,199,3.0,-999.0,90,-99.99,,,-99.99,,2013-04-19 22:33:00,
2013-04-19 18:42:00,55.0,52.0,29.77,SSW,199,3.0,-999.0,90,-99.99,,,-99.99,,2013-04-19 22:42:00,
2013-04-19 18:52:00,54.0,51.0,29.78,SW,224,3.0,-999.0,91,-99.99,,,-99.99,,2013-04-19 22:52:00,
2013-04-19 19:03:00,54.0,52.0,29.77,SSW,196,5.0,-999.0,92,-99.99,,,-99.99,,2013-04-19 23:03:00,
2013-04-19 19:11:00,54.0,52.0,29.77,SSW,196,5.0,-999.0,92,-99.99,,,-99.99,,2013-04-19 23:11:00,
2013-04-19 19:22:00,54.0,52.0,29.77,SSW,205,6.0,-999.0,92,-99.99,,,-99.99,,2013-04-19 23:22:00,
2013-04-19 19:32:00,53.0,51.0,29.77,SSW,198,4.0,-999.0,93,-99.99,,,-99.99,,2013-04-19 23:32:00,
2013-04-19 19:42:00,53.0,51.0,29.77,SSW,198,4.0,-999.0,93,-99.99,,,-99.99,,2013-04-19 23:42:00,
2013-04-19 19:52:00,53.0,51.0,29.76,North,349,2.0,-999.0,93,-99.99,,,-99.99,,2013-04-19 23:52:00,
2013-04-19 20:02:00,53.0,51.0,29.76,South,178,2.0,-999.0,93,-99.99,,,-99.99,,2013-04-20 00:02:00,
2013-04-19 20:12:00,53.0,51.0,29.76,South,178,2.0,-999.0,93,-99.99,,,-99.99,,2013-04-20 00:12:00,
2013-04-19 20:22:00,53.0,51.0,29.78,South,169,4.0,-999.0,92,-99.99,,,-99.99,,2013-04-20 00:22:00,
2013-04-19 20:32:00,53.0,51.0,29.78,South,186,3.0,-999.0,93,-99.99,,,-99.99,,2013-04-20 00:32:00,
2013-04-19 20:42:00,53.0,51.0,29.78,South,186,3.0,-999.0,93,-99.99,,,-99.99,,2013-04-20 00:42:00,
2013-04-19 20:51:00,52.0,50.0,29.79,SSW,194,3.0,-999.0,92,-99.99,,,-99.99,,2013-04-20 00:51:00,
2013-04-19 21:01:00,52.0,50.0,29.80,WSW,254,2.0,-999.0,92,-99.99,,,-99.99,,2013-04-20 01:01:00,
2013-04-19 21:11:00,52.0,50.0,29.80,WSW,254,2.0,-999.0,92,-99.99,,,-99.99,,2013-04-20 01:11:00,
2013-04-19 21:21:00,52.0,50.0,29.80,SSE,157,2.0,-999.0,92,-99.99,,,-99.99,,2013-04-20 01:21:00,
2013-04-19 21:32:00,52.0,50.0,29.82,SW,223,2.0,-999.0,92,-99.99,,,-99.99,,2013-04-20 01:32:00,
2013-04-19 21:42:00,52.0,50.0,29.82,SW,223,2.0,-999.0,92,-99.99,,,-99.99,,2013-04-20 01:42:00,
2013-04-19 21:52:00,51.0,49.0,29.83,SSE,166,3.0,-999.0,92,-99.99,,,-99.99,,2013-04-20 01:52:00,
2013-04-19 22:02:00,51.0,49.0,29.84,SSW,195,3.0,-999.0,92,-99.99,,,-99.99,,2013-04-20 02:02:00,
2013-04-19 22:11:00,51.0,49.0,29.84,SSW,195,3.0,-999.0,92,-99.99,,,-99.99,,2013-04-20 02:11:00,
2013-04-19 22:21:00,51.0,49.0,29.86,SW,225,2.0,-999.0,92,-99.99,,,-99.99,,2013-04-20 02:21:00,
2013-04-19 22:32:00,51.0,48.0,29.88,South,180,4.0,-999.0,91,-99.99,,,-99.99,,2013-04-20 02:32:00,
2013-04-19 22:42:00,51.0,48.0,29.88,South,180,4.0,-999.0,91,-99.99,,,-99.99,,2013-04-20 02:42:00,
2013-04-19 22:52:00,51.0,48.0,29.88,WSW,244,4.0,-999.0,91,-99.99,,,-99.99,,2013-04-20 02:52:00,
2013-04-19 23:01:00,50.0,47.0,29.87,West,261,3.0,-999.0,91,-99.99,,,-99.99,,2013-04-20 03:01:00,
2013-04-19 23:11:00,50.0,47.0,29.87,West,261,3.0,-999.0,91,-99.99,,,-99.99,,2013-04-20 03:11:00,
2013-04-19 23:21:00,50.0,47.0,29.88,WNW,294,2.0,-999.0,91,-99.99,,,-99.99,,2013-04-20 03:21:00,
2013-04-19 23:33:00,50.0,47.0,29.89,WNW,284,1.0,-999.0,91,-99.99,,,-99.99,,2013-04-20 03:33:00,
2013-04-19 23:43:00,50.0,47.0,29.89,WNW,284,1.0,-999.0,91,-99.99,,,-99.99,,2013-04-20 03:43:00,
2013-04-19 23:52:00,50.0,48.0,29.89,WNW,292,1.0,-999.0,92,-99.99,,,-99.99,,2013-04-20 03:52:00,